Weather History for KAFF - October, 2011

Change the Weather History Date:

Thursday, October 20, 2011

  Actual Average Record
Temperature  
Mean Temperature 46 °F -  
Max Temperature 67 °F 58 °F 77 °F (2003)
Min Temperature 26 °F 32 °F 26 °F (1999)
Degree Days  
Heating Degree Days 18    
Moisture  
Dew Point 19 °F    
Average Humidity 39    
Maximum Humidity 77    
Minimum Humidity 13    
Precipitation  
Precipitation 0.00 in - - ()
Sea Level Pressure  
Sea Level Pressure 29.93 in    
Wind  
Wind Speed 9 mph (North)    
Max Wind Speed 20 mph    
Max Gust Speed 26 mph    
Visibility 10 miles    
Events      
Averages and records for this station are not official NWS values.
T = Trace of Precipitation, MM = Missing Value Source: NWS Daily Summary

Daily Weather History Graph

Daily Weather History Graph

Search for Another Location

Airport or City:

Trip Planner

Search our weather history database for the weather conditions in past years. The results will help you decide how hot, cold, wet, or windy it might be!

Date:

Astronomy

Oct. 20, 2011 Rise Set
Actual Time 7:13 AM MDT 6:13 PM MDT
Civil Twilight 6:46 AM MDT 6:40 PM MDT
Nautical Twilight 6:15 AM MDT 7:11 PM MDT
Astronomical Twilight 5:44 AM MDT 7:42 PM MDT
Moon 12:04 AM MDT (10/20) 2:21 PM MDT (10/20)
Length of Visible Light 11h 54m
Length of Day
11h 00m
Last Quarter, 43% of the Moon is Illuminated
Oct 20
Last Quarter
Oct 26
New
Nov 2
First Quarter
Nov 10
Full
Nov 18
Last Quarter

Hourly Weather History & Observations

Time (MDT) Temp. Windchill Dew Point Humidity Pressure Visibility Wind Dir Wind Speed Gust Speed Precip Events Conditions
12:55 AM 26.8 °F 20.2 °F 20.5 °F 77% 29.98 in 10.0 mi North 5.8 mph - N/A   Clear
1:55 AM 26.4 °F 17.3 °F 20.1 °F 77% 29.95 in 10.0 mi North 9.2 mph - N/A   Clear
2:55 AM 28.4 °F 19.7 °F 20.5 °F 72% 29.91 in 10.0 mi North 9.2 mph - N/A   Clear
3:55 AM 28.2 °F 21.0 °F 20.3 °F 72% 29.90 in 10.0 mi NNW 6.9 mph - N/A   Clear
4:55 AM 28.0 °F 24.2 °F 19.6 °F 71% 29.92 in 10.0 mi Variable 3.5 mph - N/A   Clear
5:55 AM 39.6 °F 34.0 °F 16.9 °F 40% 29.86 in 10.0 mi NW 8.1 mph - N/A   Clear
6:55 AM 50.2 °F - 16.7 °F 27% 29.85 in 10.0 mi North 11.5 mph - N/A   Clear
7:55 AM 48.2 °F - 17.2 °F 29% 29.87 in 10.0 mi NNW 10.4 mph - N/A   Clear
8:55 AM 56.5 °F - 18.9 °F 23% 29.92 in 10.0 mi NNW 5.8 mph - N/A   Clear
9:55 AM 61.0 °F - 17.6 °F 19% 29.93 in 10.0 mi NNW 13.8 mph 23.0 mph N/A   Clear
10:37 AM 64.4 °F - 14.0 °F 14% 29.90 in 10.0 mi North 19.6 mph 25.3 mph N/A   Clear
10:55 AM 63.9 °F - 14.0 °F 14% 29.91 in 10.0 mi North 17.3 mph 26.5 mph N/A   Clear
11:55 AM 65.8 °F - 14.0 °F 13% 29.89 in 10.0 mi North 19.6 mph 23.0 mph N/A   Clear
12:55 PM 66.4 °F - 15.1 °F 14% 29.90 in 10.0 mi NE 12.7 mph - N/A   Clear
1:55 PM 67.5 °F - 17.1 °F 14% 29.89 in 10.0 mi NNE 9.2 mph 18.4 mph N/A   Clear
2:55 PM 66.4 °F - 17.1 °F 15% 29.87 in 10.0 mi East 5.8 mph - N/A   Clear
3:55 PM 66.9 °F - 18.1 °F 15% 29.88 in 10.0 mi NNE 9.2 mph - N/A   Clear
4:55 PM 64.4 °F - 20.3 °F 18% 29.92 in 10.0 mi NE 10.4 mph - N/A   Clear
5:55 PM 59.2 °F - 21.6 °F 23% 29.89 in 10.0 mi NE 6.9 mph - N/A   Clear
5:58 PM 59.0 °F - 21.2 °F 23% 29.90 in 10.0 mi NE 6.9 mph - N/A   Clear
6:55 PM 47.7 °F - 22.5 °F 37% 29.95 in 10.0 mi North 8.1 mph - N/A   Clear
7:55 PM 44.8 °F 39.9 °F 23.7 °F 44% 30.00 in 10.0 mi North 9.2 mph - N/A   Clear
8:52 PM 41.0 °F 35.2 °F 23.0 °F 49% 29.99 in 10.0 mi North 9.2 mph - N/A   Clear
8:55 PM 41.0 °F 35.8 °F 23.7 °F 50% 29.99 in 10.0 mi North 8.1 mph - 0.00 in   Clear
9:01 PM 41.0 °F 38.0 °F 23.0 °F 49% 30.00 in 10.0 mi NNE 4.6 mph - N/A   Clear
9:55 PM 36.0 °F 31.1 °F 22.6 °F 58% 30.02 in 10.0 mi NNE 5.8 mph - 0.00 in   Clear
10:55 PM 35.1 °F 26.9 °F 22.5 °F 60% 29.99 in 10.0 mi North 11.5 mph - N/A   Clear
11:55 PM 34.7 °F 25.9 °F 22.8 °F 62% 29.99 in 10.0 mi North 12.7 mph - N/A   Clear